Flag for Micronesia Weather past 2 weeks in Colonia, Yap, Micronesia

Now
80 °F

Partly cloudy.


Feels Like: 85 °F
Forecast: 78 / 87 °F
Wind: 9 mph from Northeast

Location: Yap Island

Current Time: Apr 20, 2015 at 1:44:21 AM

Latest Report: Apr 20, 2015 at 12:52 AM


Visibility: 12 mi

Pressure: 29.86 "Hg

Humidity: 88%

Dew point: 76 °F

Location of ColoniaLocation

Historic Weather in Colonia — Graph

°F

Colonia temperature yesterday

Maximum temperature yesterday: 87 °F (at 2:52 PM)
Minimum temperature yesterday: 76 °F (at 6:55 AM)
Average temperature yesterday: 81 °F

Past Weeks' High & Low Weather Summary

 TemperatureHumidityPressure
High88 °F (Apr 11, 12:53 PM)96% (Apr 13, 7:54 PM)29.94 "Hg (Apr 13, 7:54 PM)
Low75 °F (Apr 9, 2:53 AM)15% (Apr 17, 4:52 AM)29.73 "Hg (Apr 5, 4:52 PM)
Average81 °F84%29.83 "Hg
* Reported Apr 4 11:53 PM — Apr 19 11:53 PM, Colonia, Weather by CustomWeather, © 2015

Note: Actual official high and low records may vary slightly from our data, if they occured in-between our weather recording intervals... More about our weather records

Advertising

Colonia weather history for previous 24 hours

 ConditionsComfort  
Time TempWeatherWind HumidityBarometerVisibility
11:53 PM
Sun, Apr 19
80 °FPartly cloudy.9 mph86%29.87 "Hg12 mi
10:53 PM80 °FPassing clouds.6 mph89%29.87 "Hg12 mi
9:51 PM79 °FPassing clouds.5 mph89%29.86 "Hg12 mi
8:50 PM79 °FPassing clouds.6 mph91%29.85 "Hg12 mi
7:52 PM79 °FPartly sunny.8 mph91%29.84 "Hg12 mi
6:52 PM81 °FPartly sunny.6 mph85%29.82 "Hg12 mi
5:52 PM82 °FPartly sunny.8 mph79%29.81 "Hg12 mi
4:51 PM85 °FBroken clouds.6 mph75%29.80 "Hg12 mi
3:50 PM87 °FBroken clouds.8 mph72%29.80 "Hg12 mi
2:52 PM87 °FScattered clouds.8 mph70%29.80 "Hg12 mi
1:51 PM86 °FBroken clouds.13 mph72%29.83 "Hg12 mi
12:56 PM85 °FBroken clouds.8 mph76%29.85 "Hg12 mi
11:50 AM86 °FBroken clouds.10 mph74%29.87 "Hg12 mi
10:50 AM85 °FBroken clouds.9 mph74%29.88 "Hg12 mi
9:51 AM84 °FBroken clouds.9 mph80%29.88 "Hg12 mi
8:57 AM81 °FBroken clouds.10 mph86%29.89 "Hg12 mi
7:53 AM77 °FBroken clouds.7 mph95%29.88 "Hg12 mi
6:55 AM76 °FSprinkles. Partly cloudy.6 mph95%29.88 "Hg11 mi
5:53 AM76 °FPartly cloudy.5 mph94%29.85 "Hg12 mi
4:53 AM76 °FPartly cloudy.No wind94%29.85 "Hg12 mi
3:57 AM78 °FPartly cloudy.No wind89%29.84 "Hg12 mi
2:52 AM78 °FPartly cloudy.6 mph92%29.84 "Hg12 mi
1:51 AM78 °FPartly cloudy.9 mph86%29.86 "Hg12 mi
Weather by CustomWeather, © 2015

See weather overviewHow to use our weather pages